Time,TemperatureF,DewpointF,PressureIn,WindDirection,WindDirectionDegrees,WindSpeedMPH,WindSpeedGustMPH,Humidity,HourlyPrecipIn,Conditions,Clouds,dailyrainin,SoftwareType,DateUTC
2013-09-13 00:01:00,81.3,65.6,30.26,North,0,0.0,0.0,59,0.00,CLR,SCT,0.00,WeatherDisplay:10.37,2013-09-13 04:01:00,
2013-09-13 00:02:00,81.3,65.6,30.26,North,0,0.0,0.0,59,0.00,CLR,SCT,0.00,WeatherDisplay:10.37,2013-09-13 04:02:00,
2013-09-13 00:07:00,81.1,65.5,30.26,North,0,0.0,0.0,59,0.00,CLR,SCT,0.00,WeatherDisplay:10.37,2013-09-13 04:07:00,
2013-09-13 00:12:00,81.0,65.8,30.26,North,0,0.0,0.0,60,0.00,CLR,SCT,0.00,WeatherDisplay:10.37,2013-09-13 04:12:00,
2013-09-13 00:17:00,81.0,65.3,30.26,North,0,0.0,0.0,59,0.00,CLR,SCT,0.00,WeatherDisplay:10.37,2013-09-13 04:17:00,
2013-09-13 00:22:00,81.0,65.8,30.26,North,0,0.0,0.0,60,0.00,CLR,SCT,0.00,WeatherDisplay:10.37,2013-09-13 04:22:00,
2013-09-13 00:27:00,81.0,65.8,30.26,North,0,0.0,0.0,60,0.00,CLR,SCT,0.00,WeatherDisplay:10.37,2013-09-13 04:27:00,
2013-09-13 00:32:00,80.8,65.6,30.26,North,0,0.0,0.0,60,0.00,CLR,SCT,0.00,WeatherDisplay:10.37,2013-09-13 04:32:00,
2013-09-13 00:37:00,80.8,65.6,30.26,North,0,0.0,0.0,60,0.00,CLR,SCT,0.00,WeatherDisplay:10.37,2013-09-13 04:37:00,
2013-09-13 00:42:00,80.6,65.4,30.26,North,0,0.0,0.0,60,0.00,CLR,SCT,0.00,WeatherDisplay:10.37,2013-09-13 04:42:00,
2013-09-13 00:47:00,80.8,65.6,30.26,North,0,0.0,0.0,60,0.00,CLR,SCT,0.00,WeatherDisplay:10.37,2013-09-13 04:47:00,
2013-09-13 00:52:00,80.6,65.4,30.26,North,0,0.0,0.0,60,0.00,CLR,SCT,0.00,WeatherDisplay:10.37,2013-09-13 04:52:00,
2013-09-13 00:57:00,80.6,65.4,30.26,North,0,0.0,0.0,60,0.00,CLR,SCT,0.00,WeatherDisplay:10.37,2013-09-13 04:57:00,
2013-09-13 01:02:00,80.6,65.4,30.26,North,0,0.0,0.0,60,0.00,CLR,SCT,0.00,WeatherDisplay:10.37,2013-09-13 05:02:00,
2013-09-13 01:07:00,80.4,65.7,30.26,North,0,0.0,0.0,61,0.00,CLR,SCT,0.00,WeatherDisplay:10.37,2013-09-13 05:07:00,
2013-09-13 01:12:00,80.4,65.7,30.26,North,0,0.0,0.0,61,0.00,CLR,SCT,0.00,WeatherDisplay:10.37,2013-09-13 05:12:00,
2013-09-13 01:17:00,80.4,65.7,30.26,North,0,0.0,0.0,61,0.00,CLR,SCT,0.00,WeatherDisplay:10.37,2013-09-13 05:17:00,
2013-09-13 01:22:00,80.4,65.3,30.26,North,0,0.0,0.0,60,0.00,CLR,SCT,0.00,WeatherDisplay:10.37,2013-09-13 05:22:00,
2013-09-13 01:27:00,80.4,65.3,30.26,North,0,0.0,0.0,60,0.00,CLR,SCT,0.00,WeatherDisplay:10.37,2013-09-13 05:27:00,
2013-09-13 01:32:00,80.4,65.3,30.26,North,0,0.0,0.0,60,0.00,CLR,SCT,0.00,WeatherDisplay:10.37,2013-09-13 05:32:00,
2013-09-13 01:37:00,80.4,65.7,30.26,North,0,0.0,0.0,61,0.00,CLR,SCT,0.00,WeatherDisplay:10.37,2013-09-13 05:37:00,
2013-09-13 01:42:00,80.2,65.6,30.26,North,0,0.0,0.0,61,0.00,CLR,SCT,0.00,WeatherDisplay:10.37,2013-09-13 05:42:00,
2013-09-13 01:47:00,80.2,66.0,30.26,North,0,0.0,0.0,62,0.00,CLR,SCT,0.00,WeatherDisplay:10.37,2013-09-13 05:47:00,
2013-09-13 01:52:00,80.1,65.9,30.26,North,0,0.0,0.0,62,0.00,CLR,SCT,0.00,WeatherDisplay:10.37,2013-09-13 05:52:00,
2013-09-13 01:57:00,79.9,65.7,30.26,North,0,0.0,0.0,62,0.00,CLR,SCT,0.00,WeatherDisplay:10.37,2013-09-13 05:57:00,
2013-09-13 02:02:00,79.9,66.2,30.26,North,0,0.0,0.0,63,0.00,CLR,SCT,0.00,WeatherDisplay:10.37,2013-09-13 06:02:00,
2013-09-13 02:07:00,79.9,66.2,30.26,North,0,0.0,0.0,63,0.00,CLR,SCT,0.00,WeatherDisplay:10.37,2013-09-13 06:07:00,
2013-09-13 02:12:00,79.9,66.2,30.26,North,0,0.0,0.0,63,0.00,CLR,SCT,0.00,WeatherDisplay:10.37,2013-09-13 06:12:00,
2013-09-13 02:17:00,79.9,66.2,30.26,North,0,0.0,0.0,63,0.00,CLR,SCT,0.00,WeatherDisplay:10.37,2013-09-13 06:17:00,
2013-09-13 02:22:00,79.7,66.0,30.26,North,0,0.0,0.0,63,0.00,CLR,SCT,0.00,WeatherDisplay:10.37,2013-09-13 06:22:00,
2013-09-13 02:27:00,79.7,66.0,30.26,North,0,0.0,0.0,63,0.00,CLR,SCT,0.00,WeatherDisplay:10.37,2013-09-13 06:27:00,
2013-09-13 02:32:00,79.3,65.6,30.26,North,0,0.0,0.0,63,0.00,CLR,SCT,0.00,WeatherDisplay:10.37,2013-09-13 06:32:00,
2013-09-13 02:37:00,79.3,65.2,30.26,North,0,0.0,0.0,62,0.00,CLR,SCT,0.00,WeatherDisplay:10.37,2013-09-13 06:37:00,
2013-09-13 02:42:00,79.2,65.0,30.26,North,0,0.0,0.0,62,0.00,CLR,SCT,0.00,WeatherDisplay:10.37,2013-09-13 06:42:00,
2013-09-13 02:47:00,79.2,65.0,30.26,North,0,0.0,0.0,62,0.00,CLR,SCT,0.00,WeatherDisplay:10.37,2013-09-13 06:47:00,
2013-09-13 02:52:00,79.0,64.8,30.26,North,0,0.0,0.0,62,0.00,CLR,SCT,0.00,WeatherDisplay:10.37,2013-09-13 06:52:00,
2013-09-13 02:57:00,79.0,64.8,30.26,North,0,0.0,0.0,62,0.00,CLR,SCT,0.00,WeatherDisplay:10.37,2013-09-13 06:57:00,
2013-09-13 03:02:00,79.0,64.8,30.26,North,0,0.0,0.0,62,0.00,CLR,SCT,0.00,WeatherDisplay:10.37,2013-09-13 07:02:00,
2013-09-13 03:07:00,79.0,64.8,30.26,North,0,0.0,0.0,62,0.00,CLR,SCT,0.00,WeatherDisplay:10.37,2013-09-13 07:07:00,
2013-09-13 03:12:00,79.0,64.8,30.26,North,0,0.0,0.0,62,0.00,CLR,SCT,0.00,WeatherDisplay:10.37,2013-09-13 07:12:00,
2013-09-13 03:17:00,79.0,64.8,30.26,North,0,0.0,0.0,62,0.00,CLR,SCT,0.00,WeatherDisplay:10.37,2013-09-13 07:17:00,
2013-09-13 03:22:00,78.8,64.7,30.26,North,0,0.0,0.0,62,0.00,CLR,SCT,0.00,WeatherDisplay:10.37,2013-09-13 07:22:00,
2013-09-13 03:27:00,78.8,64.7,30.26,North,0,0.0,0.0,62,0.00,CLR,SCT,0.00,WeatherDisplay:10.37,2013-09-13 07:27:00,
2013-09-13 03:32:00,78.6,65.4,30.26,North,0,0.0,0.0,64,0.00,CLR,SCT,0.00,WeatherDisplay:10.37,2013-09-13 07:32:00,
2013-09-13 03:37:00,78.6,65.4,30.26,North,0,0.0,0.0,64,0.00,CLR,SCT,0.00,WeatherDisplay:10.37,2013-09-13 07:37:00,
2013-09-13 03:42:00,78.4,65.2,30.26,North,0,0.0,0.0,64,0.00,CLR,SCT,0.00,WeatherDisplay:10.37,2013-09-13 07:42:00,
2013-09-13 03:47:00,78.4,65.7,30.26,North,0,0.0,0.0,65,0.00,CLR,SCT,0.00,WeatherDisplay:10.37,2013-09-13 07:47:00,
2013-09-13 03:52:00,78.4,65.7,30.26,North,0,0.0,0.0,65,0.00,CLR,SCT,0.00,WeatherDisplay:10.37,2013-09-13 07:52:00,
2013-09-13 03:57:00,78.4,65.7,30.26,North,0,0.0,0.0,65,0.00,CLR,SCT,0.00,WeatherDisplay:10.37,2013-09-13 07:57:00,
2013-09-13 04:02:00,78.4,65.7,30.26,North,0,0.0,0.0,65,0.00,CLR,SCT,0.00,WeatherDisplay:10.37,2013-09-13 08:02:00,
2013-09-13 04:07:00,78.3,65.5,30.26,North,0,0.0,0.0,65,0.00,CLR,SCT,0.00,WeatherDisplay:10.37,2013-09-13 08:07:00,
2013-09-13 04:12:00,78.1,65.4,30.26,North,0,0.0,0.0,65,0.00,CLR,SCT,0.00,WeatherDisplay:10.37,2013-09-13 08:12:00,
2013-09-13 04:17:00,78.3,65.5,30.26,North,0,0.0,0.0,65,0.00,CLR,SCT,0.00,WeatherDisplay:10.37,2013-09-13 08:17:00,
2013-09-13 04:22:00,78.1,65.4,30.26,North,0,0.0,0.0,65,0.00,CLR,SCT,0.00,WeatherDisplay:10.37,2013-09-13 08:22:00,
2013-09-13 04:27:00,78.1,65.8,30.26,North,0,0.0,0.0,66,0.00,CLR,SCT,0.00,WeatherDisplay:10.37,2013-09-13 08:27:00,
2013-09-13 04:32:00,78.1,65.8,30.26,North,0,0.0,0.0,66,0.00,CLR,SCT,0.00,WeatherDisplay:10.37,2013-09-13 08:32:00,
2013-09-13 04:37:00,78.1,65.8,30.26,North,0,0.0,0.0,66,0.00,CLR,SCT,0.00,WeatherDisplay:10.37,2013-09-13 08:37:00,
2013-09-13 04:42:00,78.1,66.2,30.26,North,0,0.0,0.0,67,0.00,CLR,SCT,0.00,WeatherDisplay:10.37,2013-09-13 08:42:00,
2013-09-13 04:47:00,78.1,66.7,30.26,North,0,0.0,0.0,68,0.00,CLR,SCT,0.00,WeatherDisplay:10.37,2013-09-13 08:47:00,
2013-09-13 04:52:00,77.9,66.5,30.26,North,0,0.0,0.0,68,0.00,CLR,SCT,0.00,WeatherDisplay:10.37,2013-09-13 08:52:00,
2013-09-13 04:58:00,78.1,66.7,30.26,North,0,0.0,0.0,68,0.00,CLR,SCT,0.00,WeatherDisplay:10.37,2013-09-13 08:58:00,
2013-09-13 05:03:00,78.1,66.7,30.26,North,0,0.0,0.0,68,0.00,CLR,SCT,0.00,WeatherDisplay:10.37,2013-09-13 09:03:00,
2013-09-13 05:08:00,78.1,66.2,30.26,North,0,0.0,0.0,67,0.00,CLR,SCT,0.00,WeatherDisplay:10.37,2013-09-13 09:08:00,
2013-09-13 05:13:00,77.9,66.1,30.26,North,0,0.0,0.0,67,0.00,CLR,SCT,0.00,WeatherDisplay:10.37,2013-09-13 09:13:00,
2013-09-13 05:18:00,77.7,65.9,30.26,North,0,0.0,0.0,67,0.00,CLR,SCT,0.00,WeatherDisplay:10.37,2013-09-13 09:18:00,
2013-09-13 05:23:00,77.7,66.3,30.26,North,0,0.0,0.0,68,0.00,CLR,SCT,0.00,WeatherDisplay:10.37,2013-09-13 09:23:00,
2013-09-13 05:28:00,77.7,65.9,30.26,North,0,0.0,0.0,67,0.00,CLR,SCT,0.00,WeatherDisplay:10.37,2013-09-13 09:28:00,
2013-09-13 05:33:00,77.7,65.9,30.26,North,0,0.0,0.0,67,0.00,CLR,SCT,0.00,WeatherDisplay:10.37,2013-09-13 09:33:00,
2013-09-13 05:38:00,77.7,65.9,30.26,North,0,0.0,0.0,67,0.00,CLR,SCT,0.00,WeatherDisplay:10.37,2013-09-13 09:38:00,
2013-09-13 05:43:00,77.7,65.9,30.26,North,0,0.0,0.0,67,0.00,CLR,SCT,0.00,WeatherDisplay:10.37,2013-09-13 09:43:00,
2013-09-13 05:48:00,77.7,65.9,30.26,North,0,0.0,0.0,67,0.00,CLR,SCT,0.00,WeatherDisplay:10.37,2013-09-13 09:48:00,
2013-09-13 05:53:00,77.7,65.9,30.26,North,0,0.0,0.0,67,0.00,CLR,SCT,0.00,WeatherDisplay:10.37,2013-09-13 09:53:00,
2013-09-13 05:58:00,77.5,65.7,30.26,North,0,0.0,0.0,67,0.00,CLR,SCT,0.00,WeatherDisplay:10.37,2013-09-13 09:58:00,
2013-09-13 06:03:00,77.7,65.9,30.26,North,0,0.0,0.0,67,0.00,CLR,SCT,0.00,WeatherDisplay:10.37,2013-09-13 10:03:00,
2013-09-13 06:08:00,77.7,65.9,30.26,North,0,0.0,0.0,67,0.00,CLR,SCT,0.00,WeatherDisplay:10.37,2013-09-13 10:08:00,
2013-09-13 06:13:00,77.5,65.7,30.26,North,0,0.0,0.0,67,0.00,CLR,SCT,0.00,WeatherDisplay:10.37,2013-09-13 10:13:00,
2013-09-13 06:18:00,77.5,65.7,30.26,North,0,0.0,0.0,67,0.00,CLR,SCT,0.00,WeatherDisplay:10.37,2013-09-13 10:18:00,
2013-09-13 06:23:00,77.5,65.7,30.26,North,0,0.0,0.0,67,0.00,CLR,SCT,0.00,WeatherDisplay:10.37,2013-09-13 10:23:00,
2013-09-13 06:28:00,77.5,65.7,30.26,North,0,0.0,0.0,67,0.00,CLR,SCT,0.00,WeatherDisplay:10.37,2013-09-13 10:28:00,
2013-09-13 06:33:00,77.5,65.7,30.26,North,0,0.0,0.0,67,0.00,CLR,SCT,0.00,WeatherDisplay:10.37,2013-09-13 10:33:00,
2013-09-13 06:38:00,77.5,65.7,30.26,North,0,0.0,0.0,67,0.00,CLR,SCT,0.00,WeatherDisplay:10.37,2013-09-13 10:38:00,
2013-09-13 06:43:00,77.4,65.5,30.26,North,0,0.0,0.0,67,0.00,CLR,SCT,0.00,WeatherDisplay:10.37,2013-09-13 10:43:00,
2013-09-13 06:48:00,77.4,65.5,30.26,North,0,0.0,0.0,67,0.00,CLR,SCT,0.00,WeatherDisplay:10.37,2013-09-13 10:48:00,
2013-09-13 06:53:00,77.4,66.0,30.26,North,0,0.0,0.0,68,0.00,CLR,SCT,0.00,WeatherDisplay:10.37,2013-09-13 10:53:00,
2013-09-13 06:58:00,77.2,65.4,30.26,North,0,0.0,0.0,67,0.00,CLR,SCT,0.00,WeatherDisplay:10.37,2013-09-13 10:58:00,
2013-09-13 07:03:00,77.2,65.4,30.26,North,0,0.0,0.0,67,0.00,CLR,SCT,0.00,WeatherDisplay:10.37,2013-09-13 11:03:00,
2013-09-13 07:08:00,77.2,65.4,30.26,North,0,0.0,0.0,67,0.00,CLR,SCT,0.00,WeatherDisplay:10.37,2013-09-13 11:08:00,
2013-09-13 07:13:00,77.2,65.4,30.26,North,0,0.0,0.0,67,0.00,CLR,SCT,0.00,WeatherDisplay:10.37,2013-09-13 11:13:00,
2013-09-13 07:18:00,77.0,65.2,30.26,North,0,0.0,0.0,67,0.00,CLR,SCT,0.00,WeatherDisplay:10.37,2013-09-13 11:18:00,
2013-09-13 07:23:00,77.2,65.8,30.26,North,0,0.0,0.0,68,0.00,CLR,SCT,0.00,WeatherDisplay:10.37,2013-09-13 11:23:00,
2013-09-13 07:28:00,77.4,66.0,30.26,North,0,0.0,0.0,68,0.00,CLR,SCT,0.00,WeatherDisplay:10.37,2013-09-13 11:28:00,
2013-09-13 07:33:00,77.2,65.8,30.26,North,0,0.0,0.0,68,0.00,CLR,SCT,0.00,WeatherDisplay:10.37,2013-09-13 11:33:00,
2013-09-13 07:38:00,77.4,66.0,30.26,North,0,0.0,0.0,68,0.00,CLR,SCT,0.00,WeatherDisplay:10.37,2013-09-13 11:38:00,
2013-09-13 07:43:00,77.7,66.3,30.26,North,0,0.0,0.0,68,0.00,CLR,SCT,0.00,WeatherDisplay:10.37,2013-09-13 11:43:00,
2013-09-13 07:48:00,77.9,66.5,30.26,North,0,0.0,0.0,68,0.00,CLR,SCT,0.00,WeatherDisplay:10.37,2013-09-13 11:48:00,
2013-09-13 07:53:00,78.1,66.7,30.26,North,0,0.0,0.0,68,0.00,CLR,SCT,0.00,WeatherDisplay:10.37,2013-09-13 11:53:00,
2013-09-13 07:58:00,78.3,66.8,30.26,North,0,0.0,0.0,68,0.00,CLR,SCT,0.00,WeatherDisplay:10.37,2013-09-13 11:58:00,
2013-09-13 08:03:00,78.6,67.2,30.26,North,0,0.0,0.0,68,0.00,CLR,SCT,0.00,WeatherDisplay:10.37,2013-09-13 12:03:00,
2013-09-13 08:08:00,78.6,66.7,30.26,North,0,0.0,0.0,67,0.00,CLR,SCT,0.00,WeatherDisplay:10.37,2013-09-13 12:08:00,
2013-09-13 08:13:00,79.0,66.6,30.26,North,0,0.0,0.0,66,0.00,CLR,SCT,0.00,WeatherDisplay:10.37,2013-09-13 12:13:00,
2013-09-13 08:18:00,79.2,66.4,30.26,North,0,0.0,0.0,65,0.00,CLR,SCT,0.00,WeatherDisplay:10.37,2013-09-13 12:18:00,
2013-09-13 08:23:00,79.3,66.5,30.26,North,0,0.0,0.0,65,0.00,CLR,SCT,0.00,WeatherDisplay:10.37,2013-09-13 12:23:00,
2013-09-13 08:28:00,79.5,66.3,30.26,North,0,0.0,0.0,64,0.00,CLR,SCT,0.00,WeatherDisplay:10.37,2013-09-13 12:28:00,
2013-09-13 08:33:00,79.9,66.6,30.26,North,0,0.0,0.0,64,0.00,CLR,SCT,0.00,WeatherDisplay:10.37,2013-09-13 12:33:00,
2013-09-13 08:38:00,80.1,66.3,30.26,North,0,0.0,0.0,63,0.00,CLR,SCT,0.00,WeatherDisplay:10.37,2013-09-13 12:38:00,
2013-09-13 08:43:00,80.2,66.5,30.26,North,0,0.0,0.0,63,0.00,CLR,SCT,0.00,WeatherDisplay:10.37,2013-09-13 12:43:00,
2013-09-13 08:48:00,80.4,65.7,30.26,North,0,0.0,0.0,61,0.00,CLR,SCT,0.00,WeatherDisplay:10.37,2013-09-13 12:48:00,
2013-09-13 08:53:00,80.4,65.3,30.26,North,0,0.0,0.0,60,0.00,CLR,SCT,0.00,WeatherDisplay:10.37,2013-09-13 12:53:00,
2013-09-13 08:58:00,80.8,65.6,30.26,North,0,0.0,0.0,60,0.00,CLR,SCT,0.00,WeatherDisplay:10.37,2013-09-13 12:58:00,
2013-09-13 09:03:00,81.0,65.8,30.26,North,0,0.0,0.0,60,0.00,CLR,SCT,0.00,WeatherDisplay:10.37,2013-09-13 13:03:00,
2013-09-13 09:08:00,81.1,65.5,30.26,North,0,0.0,0.0,59,0.00,CLR,SCT,0.00,WeatherDisplay:10.37,2013-09-13 13:08:00,
2013-09-13 09:13:00,81.3,65.1,30.26,North,0,0.0,0.0,58,0.00,CLR,SCT,0.00,WeatherDisplay:10.37,2013-09-13 13:13:00,
2013-09-13 09:18:00,81.5,64.8,30.26,North,0,0.0,0.0,57,0.00,CLR,SCT,0.00,WeatherDisplay:10.37,2013-09-13 13:18:00,
2013-09-13 09:23:00,81.7,63.4,30.26,North,0,0.0,0.0,54,0.00,CLR,SCT,0.00,WeatherDisplay:10.37,2013-09-13 13:23:00,
2013-09-13 09:28:00,81.7,62.9,30.26,North,0,0.0,0.0,53,0.00,CLR,SCT,0.00,WeatherDisplay:10.37,2013-09-13 13:28:00,
2013-09-13 09:33:00,81.9,62.5,30.26,North,0,0.0,0.0,52,0.00,CLR,SCT,0.00,WeatherDisplay:10.37,2013-09-13 13:33:00,
2013-09-13 09:38:00,82.0,63.2,30.26,North,0,0.0,0.0,53,0.00,CLR,SCT,0.00,WeatherDisplay:10.37,2013-09-13 13:38:00,
2013-09-13 09:43:00,82.2,62.8,30.26,North,0,0.0,0.0,52,0.00,CLR,SCT,0.00,WeatherDisplay:10.37,2013-09-13 13:43:00,
2013-09-13 09:45:00,84.2,59.9,30.26,North,0,0.0,0.0,44,0.00,CLR,SCT,0.00,WeatherDisplay:10.37,2013-09-13 13:45:00,
2013-09-13 09:48:00,82.2,62.3,30.26,North,0,0.0,0.0,51,0.00,CLR,SCT,0.00,WeatherDisplay:10.37,2013-09-13 13:48:00,
2013-09-13 09:53:00,82.8,62.2,30.26,North,0,0.0,0.0,50,0.00,CLR,SCT,0.00,WeatherDisplay:10.37,2013-09-13 13:53:00,
2013-09-13 09:58:00,82.8,61.6,30.26,North,0,0.0,0.0,49,0.00,CLR,SCT,0.00,WeatherDisplay:10.37,2013-09-13 13:58:00,
2013-09-13 10:00:00,84.2,59.9,30.26,North,0,0.0,0.0,44,0.00,CLR,SCT,0.00,WeatherDisplay:10.37,2013-09-13 14:00:00,
2013-09-13 10:03:00,83.1,62.0,30.26,North,0,0.0,0.0,49,0.00,CLR,SCT,0.00,WeatherDisplay:10.37,2013-09-13 14:03:00,
2013-09-13 10:08:00,83.1,61.4,30.26,North,0,0.0,0.0,48,0.00,CLR,SCT,0.00,WeatherDisplay:10.37,2013-09-13 14:08:00,
2013-09-13 10:13:00,83.3,61.6,30.26,North,0,0.0,0.0,48,0.00,CLR,SCT,0.00,WeatherDisplay:10.37,2013-09-13 14:13:00,
2013-09-13 10:15:00,84.2,59.9,30.26,North,0,0.0,0.0,44,0.00,CLR,SCT,0.00,WeatherDisplay:10.37,2013-09-13 14:15:00,
2013-09-13 10:18:00,83.5,61.1,30.26,North,0,0.0,0.0,47,0.00,CLR,SCT,0.00,WeatherDisplay:10.37,2013-09-13 14:18:00,
2013-09-13 10:23:00,83.5,60.5,30.26,North,0,0.0,0.0,46,0.00,CLR,SCT,0.00,WeatherDisplay:10.37,2013-09-13 14:23:00,
2013-09-13 10:28:00,83.7,61.3,30.26,North,0,0.0,0.0,47,0.00,CLR,SCT,0.00,WeatherDisplay:10.37,2013-09-13 14:28:00,
2013-09-13 10:30:00,84.2,59.9,30.26,North,0,0.0,0.0,44,0.00,CLR,SCT,0.00,WeatherDisplay:10.37,2013-09-13 14:30:00,
2013-09-13 10:33:00,83.8,60.8,30.26,North,0,0.0,0.0,46,0.00,CLR,SCT,0.00,WeatherDisplay:10.37,2013-09-13 14:33:00,
2013-09-13 10:38:00,83.8,60.2,30.26,North,0,0.0,0.0,45,0.00,CLR,SCT,0.00,WeatherDisplay:10.37,2013-09-13 14:38:00,
2013-09-13 10:43:00,84.2,60.6,30.26,North,0,0.0,0.0,45,0.00,CLR,SCT,0.00,WeatherDisplay:10.37,2013-09-13 14:43:00,
2013-09-13 10:45:00,83.7,61.9,30.26,North,0,0.0,0.0,48,0.00,CLR,SCT,0.00,WeatherDisplay:10.37,2013-09-13 14:45:00,
2013-09-13 10:48:00,84.2,60.6,30.26,North,0,0.0,0.0,45,0.00,CLR,SCT,0.00,WeatherDisplay:10.37,2013-09-13 14:48:00,
2013-09-13 10:53:00,84.4,60.1,30.26,North,0,0.0,0.0,44,0.00,CLR,SCT,0.00,WeatherDisplay:10.37,2013-09-13 14:53:00,
2013-09-13 10:59:00,84.9,60.6,30.26,North,0,0.0,0.0,44,0.00,CLR,SCT,0.00,WeatherDisplay:10.37,2013-09-13 14:59:00,
2013-09-13 11:00:00,83.7,61.9,30.26,North,0,0.0,0.0,48,0.00,CLR,SCT,0.00,WeatherDisplay:10.37,2013-09-13 15:00:00,
2013-09-13 11:04:00,84.7,60.4,30.26,North,0,0.0,0.0,44,0.00,CLR,SCT,0.00,WeatherDisplay:10.37,2013-09-13 15:04:00,
2013-09-13 11:09:00,84.7,59.1,30.26,North,0,0.0,0.0,42,0.00,CLR,SCT,0.00,WeatherDisplay:10.37,2013-09-13 15:09:00,
2013-09-13 11:14:00,85.3,59.6,30.26,North,0,0.0,0.0,42,0.00,CLR,SCT,0.00,WeatherDisplay:10.37,2013-09-13 15:14:00,
2013-09-13 11:15:00,83.7,61.9,30.26,North,0,0.0,0.0,48,0.00,CLR,SCT,0.00,WeatherDisplay:10.37,2013-09-13 15:15:00,
2013-09-13 11:19:00,85.6,59.9,30.26,North,0,0.0,0.0,42,0.00,CLR,SCT,0.00,WeatherDisplay:10.37,2013-09-13 15:19:00,
2013-09-13 11:24:00,85.6,59.9,30.26,North,0,0.0,0.0,42,0.00,CLR,SCT,0.00,WeatherDisplay:10.37,2013-09-13 15:24:00,
2013-09-13 11:29:00,85.5,59.1,30.26,North,0,0.0,0.0,41,0.00,CLR,SCT,0.00,WeatherDisplay:10.37,2013-09-13 15:29:00,
2013-09-13 11:30:00,83.7,61.9,30.26,North,0,0.0,0.0,48,0.00,CLR,SCT,0.00,WeatherDisplay:10.37,2013-09-13 15:30:00,
2013-09-13 11:34:00,85.5,60.4,30.26,North,0,0.0,0.0,43,0.00,CLR,SCT,0.00,WeatherDisplay:10.37,2013-09-13 15:34:00,
2013-09-13 11:39:00,85.6,61.2,30.26,North,0,0.0,0.0,44,0.00,CLR,SCT,0.00,WeatherDisplay:10.37,2013-09-13 15:39:00,
2013-09-13 11:44:00,85.6,59.2,30.26,North,0,0.0,0.0,41,0.00,CLR,SCT,0.00,WeatherDisplay:10.37,2013-09-13 15:44:00,
2013-09-13 11:45:00,83.1,62.0,30.26,North,0,0.0,0.0,49,0.00,CLR,SCT,0.00,WeatherDisplay:10.37,2013-09-13 15:45:00,
2013-09-13 11:49:00,85.8,60.1,30.26,North,0,0.0,0.0,42,0.00,CLR,SCT,0.00,WeatherDisplay:10.37,2013-09-13 15:49:00,
2013-09-13 11:54:00,86.4,61.2,30.26,North,0,0.0,0.0,43,0.00,CLR,SCT,0.00,WeatherDisplay:10.37,2013-09-13 15:54:00,
2013-09-13 11:59:00,86.9,61.7,30.26,North,0,0.0,0.0,43,0.00,CLR,SCT,0.00,WeatherDisplay:10.37,2013-09-13 15:59:00,
2013-09-13 12:00:00,83.1,62.0,30.26,North,0,0.0,0.0,49,0.00,CLR,SCT,0.00,WeatherDisplay:10.37,2013-09-13 16:00:00,
2013-09-13 12:04:00,87.1,61.2,30.26,North,0,0.0,0.0,42,0.00,CLR,SCT,0.00,WeatherDisplay:10.37,2013-09-13 16:04:00,
2013-09-13 12:09:00,87.4,62.2,30.26,North,0,0.0,0.0,43,0.00,CLR,SCT,0.00,WeatherDisplay:10.37,2013-09-13 16:09:00,
2013-09-13 12:14:00,87.4,61.5,30.26,North,0,0.0,0.0,42,0.00,CLR,SCT,0.00,WeatherDisplay:10.37,2013-09-13 16:14:00,
2013-09-13 12:15:00,83.1,62.0,30.26,North,0,0.0,0.0,49,0.00,CLR,SCT,0.00,WeatherDisplay:10.37,2013-09-13 16:15:00,
2013-09-13 12:19:00,87.8,61.2,30.26,North,0,0.0,0.0,41,0.00,CLR,SCT,0.00,WeatherDisplay:10.37,2013-09-13 16:19:00,
2013-09-13 12:24:00,87.8,60.5,30.26,North,0,0.0,0.0,40,0.00,CLR,SCT,0.00,WeatherDisplay:10.37,2013-09-13 16:24:00,
2013-09-13 12:29:00,88.2,61.5,30.26,North,0,0.0,0.0,41,0.00,CLR,SCT,0.00,WeatherDisplay:10.37,2013-09-13 16:29:00,
2013-09-13 12:30:00,83.1,62.0,30.26,North,0,0.0,0.0,49,0.00,CLR,SCT,0.00,WeatherDisplay:10.37,2013-09-13 16:30:00,
2013-09-13 12:34:00,88.2,61.5,30.26,North,0,0.0,0.0,41,0.00,CLR,SCT,0.00,WeatherDisplay:10.37,2013-09-13 16:34:00,
2013-09-13 12:39:00,88.5,61.8,30.26,North,0,0.0,0.0,41,0.00,CLR,SCT,0.00,WeatherDisplay:10.37,2013-09-13 16:39:00,
2013-09-13 12:44:00,88.3,61.0,30.26,North,0,0.0,0.0,40,0.00,CLR,SCT,0.00,WeatherDisplay:10.37,2013-09-13 16:44:00,
2013-09-13 12:45:00,82.8,62.2,30.26,North,0,0.0,0.0,50,0.00,CLR,SCT,0.00,WeatherDisplay:10.37,2013-09-13 16:45:00,
2013-09-13 12:49:00,88.5,60.4,30.26,North,0,0.0,0.0,39,0.00,CLR,SCT,0.00,WeatherDisplay:10.37,2013-09-13 16:49:00,
2013-09-13 12:54:00,88.3,60.2,30.26,North,0,0.0,0.0,39,0.00,CLR,SCT,0.00,WeatherDisplay:10.37,2013-09-13 16:54:00,
2013-09-13 12:59:00,88.3,60.2,30.26,North,0,0.0,0.0,39,0.00,CLR,SCT,0.00,WeatherDisplay:10.37,2013-09-13 16:59:00,
2013-09-13 13:00:00,82.8,62.2,30.26,North,0,0.0,0.0,50,0.00,CLR,SCT,0.00,WeatherDisplay:10.37,2013-09-13 17:00:00,
2013-09-13 13:04:00,88.5,60.4,30.26,North,0,0.0,0.0,39,0.00,CLR,SCT,0.00,WeatherDisplay:10.37,2013-09-13 17:04:00,
2013-09-13 13:09:00,88.7,59.8,30.26,North,0,0.0,0.0,38,0.00,CLR,SCT,0.00,WeatherDisplay:10.37,2013-09-13 17:09:00,
2013-09-13 13:14:00,88.7,59.1,30.26,North,0,0.0,0.0,37,0.00,CLR,SCT,0.00,WeatherDisplay:10.37,2013-09-13 17:14:00,
2013-09-13 13:15:00,82.8,62.2,30.26,North,0,0.0,0.0,50,0.00,CLR,SCT,0.00,WeatherDisplay:10.37,2013-09-13 17:15:00,
2013-09-13 13:19:00,88.9,60.0,30.26,North,0,0.0,0.0,38,0.00,CLR,SCT,0.00,WeatherDisplay:10.37,2013-09-13 17:19:00,
2013-09-13 13:24:00,89.1,60.9,30.26,North,0,0.0,0.0,39,0.00,CLR,SCT,0.00,WeatherDisplay:10.37,2013-09-13 17:24:00,
2013-09-13 13:29:00,89.1,60.1,30.26,North,0,0.0,0.0,38,0.00,CLR,SCT,0.00,WeatherDisplay:10.37,2013-09-13 17:29:00,
2013-09-13 13:30:00,82.8,62.2,30.26,North,0,0.0,0.0,50,0.00,CLR,SCT,0.00,WeatherDisplay:10.37,2013-09-13 17:30:00,
2013-09-13 13:34:00,89.2,61.0,30.26,North,0,0.0,0.0,39,0.00,CLR,SCT,0.00,WeatherDisplay:10.37,2013-09-13 17:34:00,
2013-09-13 13:39:00,89.2,59.6,30.26,North,0,0.0,0.0,37,0.00,CLR,SCT,0.00,WeatherDisplay:10.37,2013-09-13 17:39:00,
2013-09-13 13:44:00,89.4,60.5,30.26,North,0,0.0,0.0,38,0.00,CLR,SCT,0.00,WeatherDisplay:10.37,2013-09-13 17:44:00,
2013-09-13 13:49:00,89.4,59.0,30.26,North,0,0.0,0.0,36,0.00,CLR,SCT,0.00,WeatherDisplay:10.37,2013-09-13 17:49:00,
2013-09-13 13:54:00,89.6,59.1,30.26,North,0,0.0,0.0,36,0.00,CLR,SCT,0.00,WeatherDisplay:10.37,2013-09-13 17:54:00,
2013-09-13 13:59:00,89.4,59.0,30.26,North,0,0.0,0.0,36,0.00,CLR,SCT,0.00,WeatherDisplay:10.37,2013-09-13 17:59:00,
2013-09-13 14:04:00,89.6,59.9,30.26,North,0,0.0,0.0,37,0.00,CLR,SCT,0.00,WeatherDisplay:10.37,2013-09-13 18:04:00,
2013-09-13 14:09:00,89.6,59.1,30.26,North,0,0.0,0.0,36,0.00,CLR,SCT,0.00,WeatherDisplay:10.37,2013-09-13 18:09:00,
2013-09-13 14:14:00,89.6,59.1,30.26,North,0,0.0,0.0,36,0.00,CLR,SCT,0.00,WeatherDisplay:10.37,2013-09-13 18:14:00,
2013-09-13 14:19:00,89.8,59.3,30.26,North,0,0.0,0.0,36,0.00,CLR,SCT,0.00,WeatherDisplay:10.37,2013-09-13 18:19:00,
2013-09-13 14:24:00,90.0,59.4,30.26,North,0,0.0,0.0,36,0.00,CLR,SCT,0.00,WeatherDisplay:10.37,2013-09-13 18:24:00,
2013-09-13 14:29:00,89.8,59.3,30.26,North,0,0.0,0.0,36,0.00,CLR,SCT,0.00,WeatherDisplay:10.37,2013-09-13 18:29:00,
2013-09-13 14:34:00,90.1,60.4,30.26,North,0,0.0,0.0,37,0.00,CLR,SCT,0.00,WeatherDisplay:10.37,2013-09-13 18:34:00,
2013-09-13 14:39:00,90.1,58.8,30.26,North,0,0.0,0.0,35,0.00,CLR,SCT,0.00,WeatherDisplay:10.37,2013-09-13 18:39:00,
2013-09-13 14:44:00,90.0,58.6,30.26,North,0,0.0,0.0,35,0.00,CLR,SCT,0.00,WeatherDisplay:10.37,2013-09-13 18:44:00,
2013-09-13 14:49:00,90.1,59.6,30.26,North,0,0.0,0.0,36,0.00,CLR,SCT,0.00,WeatherDisplay:10.37,2013-09-13 18:49:00,
2013-09-13 14:54:00,90.3,59.7,30.26,North,0,0.0,0.0,36,0.00,CLR,SCT,0.00,WeatherDisplay:10.37,2013-09-13 18:54:00,
2013-09-13 14:59:00,90.3,59.0,30.26,North,0,0.0,0.0,35,0.00,CLR,SCT,0.00,WeatherDisplay:10.37,2013-09-13 18:59:00,
2013-09-13 15:04:00,90.5,59.9,30.26,North,0,0.0,0.0,36,0.00,CLR,SCT,0.00,WeatherDisplay:10.37,2013-09-13 19:04:00,
2013-09-13 15:09:00,90.5,59.1,30.26,North,0,0.0,0.0,35,0.00,CLR,SCT,0.00,WeatherDisplay:10.37,2013-09-13 19:09:00,
2013-09-13 15:14:00,90.5,59.9,30.26,North,0,0.0,0.0,36,0.00,CLR,SCT,0.00,WeatherDisplay:10.37,2013-09-13 19:14:00,
2013-09-13 15:19:00,90.9,60.2,30.26,North,0,0.0,0.0,36,0.00,CLR,SCT,0.00,WeatherDisplay:10.37,2013-09-13 19:19:00,
2013-09-13 15:24:00,90.7,60.1,30.26,North,0,0.0,0.0,36,0.00,CLR,SCT,0.00,WeatherDisplay:10.37,2013-09-13 19:24:00,
2013-09-13 15:29:00,90.9,60.2,30.26,North,0,0.0,0.0,36,0.00,CLR,SCT,0.00,WeatherDisplay:10.37,2013-09-13 19:29:00,
2013-09-13 15:34:00,91.0,59.6,30.26,North,0,0.0,0.0,35,0.00,CLR,SCT,0.00,WeatherDisplay:10.37,2013-09-13 19:34:00,
2013-09-13 15:39:00,90.9,59.4,30.26,North,0,0.0,0.0,35,0.00,CLR,SCT,0.00,WeatherDisplay:10.37,2013-09-13 19:39:00,
2013-09-13 15:44:00,90.9,59.4,30.26,North,0,0.0,0.0,35,0.00,CLR,SCT,0.00,WeatherDisplay:10.37,2013-09-13 19:44:00,
2013-09-13 15:49:00,91.0,59.6,30.26,North,0,0.0,0.0,35,0.00,CLR,SCT,0.00,WeatherDisplay:10.37,2013-09-13 19:49:00,
2013-09-13 15:54:00,90.9,59.4,30.26,North,0,0.0,0.0,35,0.00,CLR,SCT,0.00,WeatherDisplay:10.37,2013-09-13 19:54:00,
2013-09-13 15:59:00,91.0,59.6,30.26,North,0,0.0,0.0,35,0.00,CLR,SCT,0.00,WeatherDisplay:10.37,2013-09-13 19:59:00,
2013-09-13 16:04:00,90.7,60.1,30.26,North,0,0.0,0.0,36,0.00,CLR,SCT,0.00,WeatherDisplay:10.37,2013-09-13 20:04:00,
2013-09-13 16:09:00,90.5,59.1,30.26,North,0,0.0,0.0,35,0.00,CLR,SCT,0.00,WeatherDisplay:10.37,2013-09-13 20:09:00,
2013-09-13 16:14:00,90.7,59.3,30.26,North,0,0.0,0.0,35,0.00,CLR,SCT,0.00,WeatherDisplay:10.37,2013-09-13 20:14:00,
2013-09-13 16:19:00,90.9,58.6,30.26,North,0,0.0,0.0,34,0.00,CLR,SCT,0.00,WeatherDisplay:10.37,2013-09-13 20:19:00,
2013-09-13 16:24:00,90.9,59.4,30.26,North,0,0.0,0.0,35,0.00,CLR,SCT,0.00,WeatherDisplay:10.37,2013-09-13 20:24:00,
2013-09-13 16:29:00,91.0,58.8,30.26,North,0,0.0,0.0,34,0.00,CLR,SCT,0.00,WeatherDisplay:10.37,2013-09-13 20:29:00,
2013-09-13 16:35:00,91.2,58.9,30.26,North,0,0.0,0.0,34,0.00,CLR,SCT,0.00,WeatherDisplay:10.37,2013-09-13 20:35:00,
2013-09-13 16:40:00,91.2,58.1,30.26,North,0,0.0,0.0,33,0.00,CLR,SCT,0.00,WeatherDisplay:10.37,2013-09-13 20:40:00,
2013-09-13 16:45:00,91.4,56.5,30.26,North,0,0.0,0.0,31,0.00,CLR,SCT,0.00,WeatherDisplay:10.37,2013-09-13 20:45:00,
2013-09-13 16:50:00,91.2,57.2,30.26,North,0,0.0,0.0,32,0.00,CLR,SCT,0.00,WeatherDisplay:10.37,2013-09-13 20:50:00,
2013-09-13 16:55:00,91.0,56.2,30.26,North,0,0.0,0.0,31,0.00,CLR,SCT,0.00,WeatherDisplay:10.37,2013-09-13 20:55:00,
2013-09-13 17:00:00,91.0,54.4,30.26,North,0,0.0,0.0,29,0.00,CLR,SCT,0.00,WeatherDisplay:10.37,2013-09-13 21:00:00,
2013-09-13 17:05:00,90.9,56.0,30.26,North,0,0.0,0.0,31,0.00,CLR,SCT,0.00,WeatherDisplay:10.37,2013-09-13 21:05:00,
2013-09-13 17:10:00,91.0,57.9,30.26,North,0,0.0,0.0,33,0.00,CLR,SCT,0.00,WeatherDisplay:10.37,2013-09-13 21:10:00,
2013-09-13 17:15:00,91.0,57.1,30.26,North,0,0.0,0.0,32,0.00,CLR,SCT,0.00,WeatherDisplay:10.37,2013-09-13 21:15:00,
2013-09-13 17:20:00,90.9,56.9,30.26,North,0,0.0,0.0,32,0.00,CLR,SCT,0.00,WeatherDisplay:10.37,2013-09-13 21:20:00,
2013-09-13 17:25:00,91.0,57.9,30.26,North,0,0.0,0.0,33,0.00,CLR,SCT,0.00,WeatherDisplay:10.37,2013-09-13 21:25:00,
2013-09-13 17:30:00,90.7,57.6,30.26,North,0,0.0,0.0,33,0.00,CLR,SCT,0.00,WeatherDisplay:10.37,2013-09-13 21:30:00,
2013-09-13 17:35:00,90.3,57.3,30.26,North,0,0.0,0.0,33,0.00,CLR,SCT,0.00,WeatherDisplay:10.37,2013-09-13 21:35:00,
2013-09-13 17:40:00,90.1,58.0,30.26,North,0,0.0,0.0,34,0.00,CLR,SCT,0.00,WeatherDisplay:10.37,2013-09-13 21:40:00,
2013-09-13 17:45:00,90.0,57.8,30.26,North,0,0.0,0.0,34,0.00,CLR,SCT,0.00,WeatherDisplay:10.37,2013-09-13 21:45:00,
2013-09-13 17:50:00,89.6,56.7,30.26,North,0,0.0,0.0,33,0.00,CLR,SCT,0.00,WeatherDisplay:10.37,2013-09-13 21:50:00,
2013-09-13 17:55:00,89.4,57.4,30.26,North,0,0.0,0.0,34,0.00,CLR,SCT,0.00,WeatherDisplay:10.37,2013-09-13 21:55:00,
2013-09-13 18:00:00,89.2,58.8,30.26,North,0,0.0,0.0,36,0.00,CLR,SCT,0.00,WeatherDisplay:10.37,2013-09-13 22:00:00,
2013-09-13 18:05:00,89.1,58.6,30.26,North,0,0.0,0.0,36,0.00,CLR,SCT,0.00,WeatherDisplay:10.37,2013-09-13 22:05:00,
2013-09-13 18:10:00,89.1,59.4,30.26,North,0,0.0,0.0,37,0.00,CLR,SCT,0.00,WeatherDisplay:10.37,2013-09-13 22:10:00,
2013-09-13 18:15:00,89.1,59.4,30.26,North,0,0.0,0.0,37,0.00,CLR,SCT,0.00,WeatherDisplay:10.37,2013-09-13 22:15:00,
2013-09-13 18:20:00,88.9,59.2,30.26,North,0,0.0,0.0,37,0.00,CLR,SCT,0.00,WeatherDisplay:10.37,2013-09-13 22:20:00,
2013-09-13 18:25:00,88.7,59.1,30.26,North,0,0.0,0.0,37,0.00,CLR,SCT,0.00,WeatherDisplay:10.37,2013-09-13 22:25:00,
2013-09-13 18:30:00,88.2,58.6,30.26,North,0,0.0,0.0,37,0.00,CLR,SCT,0.00,WeatherDisplay:10.37,2013-09-13 22:30:00,
2013-09-13 18:35:00,88.0,58.4,30.26,North,0,0.0,0.0,37,0.00,CLR,SCT,0.00,WeatherDisplay:10.37,2013-09-13 22:35:00,
2013-09-13 18:40:00,87.8,59.0,30.26,North,0,0.0,0.0,38,0.00,CLR,SCT,0.00,WeatherDisplay:10.37,2013-09-13 22:40:00,
2013-09-13 18:45:00,87.6,59.6,30.26,North,0,0.0,0.0,39,0.00,CLR,SCT,0.00,WeatherDisplay:10.37,2013-09-13 22:45:00,
2013-09-13 18:50:00,87.4,58.7,30.26,North,0,0.0,0.0,38,0.00,CLR,SCT,0.00,WeatherDisplay:10.37,2013-09-13 22:50:00,
2013-09-13 18:55:00,87.3,59.3,30.26,North,0,0.0,0.0,39,0.00,CLR,SCT,0.00,WeatherDisplay:10.37,2013-09-13 22:55:00,
2013-09-13 19:00:00,87.1,59.1,30.26,North,0,0.0,0.0,39,0.00,CLR,SCT,0.00,WeatherDisplay:10.37,2013-09-13 23:00:00,
2013-09-13 19:05:00,86.9,59.0,30.26,North,0,0.0,0.0,39,0.00,CLR,SCT,0.00,WeatherDisplay:10.37,2013-09-13 23:05:00,
2013-09-13 19:10:00,86.5,58.6,30.26,North,0,0.0,0.0,39,0.00,CLR,SCT,0.00,WeatherDisplay:10.37,2013-09-13 23:10:00,
2013-09-13 19:15:00,86.4,59.2,30.26,North,0,0.0,0.0,40,0.00,CLR,SCT,0.00,WeatherDisplay:10.37,2013-09-13 23:15:00,
2013-09-13 19:20:00,85.8,59.4,30.26,North,0,0.0,0.0,41,0.00,CLR,SCT,0.00,WeatherDisplay:10.37,2013-09-13 23:20:00,
2013-09-13 19:25:00,85.8,60.1,30.26,North,0,0.0,0.0,42,0.00,CLR,SCT,0.00,WeatherDisplay:10.37,2013-09-13 23:25:00,
2013-09-13 19:30:00,85.6,59.2,30.26,North,0,0.0,0.0,41,0.00,CLR,SCT,0.00,WeatherDisplay:10.37,2013-09-13 23:30:00,
2013-09-13 19:35:00,85.5,59.8,30.26,North,0,0.0,0.0,42,0.00,CLR,SCT,0.00,WeatherDisplay:10.37,2013-09-13 23:35:00,
2013-09-13 19:40:00,85.3,60.3,30.26,North,0,0.0,0.0,43,0.00,CLR,SCT,0.00,WeatherDisplay:10.37,2013-09-13 23:40:00,
2013-09-13 19:45:00,85.3,60.9,30.26,North,0,0.0,0.0,44,0.00,CLR,SCT,0.00,WeatherDisplay:10.37,2013-09-13 23:45:00,
2013-09-13 19:50:00,85.1,60.1,30.26,North,0,0.0,0.0,43,0.00,CLR,SCT,0.00,WeatherDisplay:10.37,2013-09-13 23:50:00,
2013-09-13 19:55:00,85.1,59.4,30.26,North,0,0.0,0.0,42,0.00,CLR,SCT,0.00,WeatherDisplay:10.37,2013-09-13 23:55:00,
2013-09-13 20:00:00,85.1,60.1,30.26,North,0,0.0,0.0,43,0.00,CLR,SCT,0.00,WeatherDisplay:10.37,2013-09-14 00:00:00,
2013-09-13 20:05:00,84.9,59.3,30.26,North,0,0.0,0.0,42,0.00,CLR,SCT,0.00,WeatherDisplay:10.37,2013-09-14 00:05:00,
2013-09-13 20:10:00,84.9,59.3,30.26,North,0,0.0,0.0,42,0.00,CLR,SCT,0.00,WeatherDisplay:10.37,2013-09-14 00:10:00,
2013-09-13 20:15:00,84.7,59.1,30.26,North,0,0.0,0.0,42,0.00,CLR,SCT,0.00,WeatherDisplay:10.37,2013-09-14 00:15:00,
2013-09-13 20:20:00,84.7,59.8,30.26,North,0,0.0,0.0,43,0.00,CLR,SCT,0.00,WeatherDisplay:10.37,2013-09-14 00:20:00,